timestamp,surface_pressure_avg,surface_temp_avg,battery_voltage,lat,long
2019-02-10 00:00:00+00:00,273.6314,0.14,12.97,47.84626,-54.09684
2019-02-10 00:10:00+00:00,274.023,0.1,12.89,47.84626,-54.09684
2019-02-10 00:20:00+00:00,283.578,0.1,12.97,47.84626,-54.09684
2019-02-10 00:30:00+00:00,295.538,0.1,12.97,47.84626,-54.09684
2019-02-10 00:40:00+00:00,303.4396,0.1,12.97,47.84626,-54.09684
2019-02-10 00:50:00+00:00,308.5297,0.08,12.97,47.84626,-54.09684
2019-02-10 01:00:00+00:00,315.7047,0.09,12.89,47.84626,-54.09684
2019-02-10 01:10:00+00:00,320.923,0.09,12.81,47.84626,-54.09684
2019-02-10 01:20:00+00:00,323.5813,0.1,12.97,47.84626,-54.09684
2019-02-10 01:30:00+00:00,331.9963,0.1,12.97,47.84626,-54.09684
2019-02-10 01:40:00+00:00,335.6247,0.1,12.97,47.84626,-54.09684
2019-02-10 01:50:00+00:00,332.353,0.1,12.97,47.84626,-54.09684
2019-02-10 02:00:00+00:00,331.3146,0.1,12.89,47.84626,-54.09684
2019-02-10 02:10:00+00:00,335.0129,0.1,12.81,47.84626,-54.09684
2019-02-10 02:20:00+00:00,341.9446,0.08,12.89,47.84626,-54.09684
2019-02-10 02:30:00+00:00,340.9496,0.0,12.89,47.84626,-54.09684
2019-02-10 02:40:00+00:00,337.0714,0.0,12.97,47.84626,-54.09684
2019-02-10 02:50:00+00:00,335.853,0.0,12.97,47.84626,-54.09684
2019-02-10 03:00:00+00:00,339.1963,-0.0,12.89,47.84626,-54.09684
2019-02-10 03:10:00+00:00,334.048,-0.04,12.81,47.84626,-54.09684
2019-02-10 03:20:00+00:00,326.4729,-0.07,12.89,47.84626,-54.09684
2019-02-10 03:30:00+00:00,330.4913,-0.1,12.89,47.84626,-54.09684
2019-02-10 03:40:00+00:00,332.458,-0.1,12.89,47.84626,-54.09684
2019-02-10 03:50:00+00:00,324.9064,-0.1,12.97,47.84626,-54.09684
2019-02-10 04:00:00+00:00,321.4096,-0.1,12.81,47.84626,-54.09684
2019-02-10 04:10:00+00:00,326.9563,-0.1,12.73,47.84626,-54.09684
2019-02-10 04:20:00+00:00,333.1096,-0.1,12.89,47.84626,-54.09684
2019-02-10 04:30:00+00:00,329.6429,-0.1,12.89,47.84626,-54.09684
2019-02-10 04:40:00+00:00,321.2629,-0.03,12.89,47.84626,-54.09684
2019-02-10 04:50:00+00:00,319.8713,-0.01,12.89,47.84626,-54.09684
2019-02-10 05:00:00+00:00,318.413,-0.01,12.81,47.84626,-54.09684
2019-02-10 05:10:00+00:00,308.6913,-0.02,12.73,47.84626,-54.09684
2019-02-10 05:20:00+00:00,299.788,-0.01,12.81,47.84626,-54.09684
2019-02-10 05:30:00+00:00,299.4281,-0.0,12.89,47.84626,-54.09684
2019-02-10 05:40:00+00:00,299.8564,0.0,12.89,47.84626,-54.09684
2019-02-10 05:50:00+00:00,288.8864,-0.1,12.89,47.84626,-54.09684
2019-02-10 06:00:00+00:00,280.2147,-0.1,12.81,47.84626,-54.09684
2019-02-10 06:10:00+00:00,277.113,-0.1,12.73,47.84626,-54.09684
2019-02-10 06:20:00+00:00,272.9915,-0.1,12.81,47.84626,-54.09684
2019-02-10 06:30:00+00:00,264.953,-0.1,12.81,47.84626,-54.09684
2019-02-10 06:40:00+00:00,260.5181,-0.1,12.89,47.84626,-54.09684
2019-02-10 06:50:00+00:00,253.1681,-0.01,12.89,47.84626,-54.09684
2019-02-10 07:00:00+00:00,243.853,-0.08,12.81,47.84626,-54.09684
2019-02-10 07:10:00+00:00,245.0397,-0.05,12.73,47.84626,-54.09684
2019-02-10 07:20:00+00:00,247.0747,-0.0,12.81,47.84626,-54.09684
2019-02-10 07:30:00+00:00,239.3181,-0.03,12.81,47.84626,-54.09684
2019-02-10 07:40:00+00:00,231.8898,-0.0,12.89,47.84626,-54.09684
2019-02-10 07:50:00+00:00,231.0448,0.0,12.89,47.84626,-54.09684
2019-02-10 08:00:00+00:00,231.2198,0.0,12.81,47.84626,-54.09684
2019-02-10 08:10:00+00:00,227.7548,-0.0,12.73,47.84626,-54.09684
2019-02-10 08:20:00+00:00,228.9598,-0.09,12.81,47.84626,-54.09684
2019-02-10 08:30:00+00:00,232.0164,-0.08,12.81,47.84626,-54.09684
2019-02-10 08:40:00+00:00,227.8481,-0.1,12.89,47.84626,-54.09684
2019-02-10 08:50:00+00:00,219.4864,-0.1,12.89,47.84626,-54.09684
2019-02-10 09:00:00+00:00,216.6031,-0.1,12.81,47.84626,-54.09684
2019-02-10 09:10:00+00:00,217.6614,-0.1,12.73,47.84626,-54.09684
2019-02-10 09:20:00+00:00,217.4081,-0.1,12.81,47.84626,-54.09684
2019-02-10 09:30:00+00:00,215.3714,-0.1,12.81,47.84626,-54.09684
2019-02-10 09:40:00+00:00,214.5048,-0.1,12.81,47.84626,-54.09684
2019-02-10 09:50:00+00:00,216.9098,-0.1,12.89,47.84626,-54.09684
2019-02-10 10:00:00+00:00,223.6214,-0.1,12.73,47.84626,-54.09684
2019-02-10 10:10:00+00:00,230.9531,-0.1,12.73,47.84626,-54.09684
2019-02-10 10:20:00+00:00,234.5814,-0.1,12.81,47.84626,-54.09684
2019-02-10 10:30:00+00:00,239.6414,-0.06,12.81,47.84626,-54.09684
2019-02-10 10:40:00+00:00,246.7947,0.0,12.81,47.84626,-54.09684
2019-02-10 10:50:00+00:00,246.923,0.0,12.81,47.84626,-54.09684
2019-02-10 11:00:00+00:00,247.9164,0.0,12.73,47.84626,-54.09684
2019-02-10 11:10:00+00:00,255.2797,0.0,12.73,47.84626,-54.09684
2019-02-10 11:20:00+00:00,259.1814,0.0,12.81,47.84626,-54.09684
2019-02-10 11:30:00+00:00,260.9497,0.0,12.81,47.84626,-54.09684
2019-02-10 11:40:00+00:00,267.7614,0.01,12.89,47.84626,-54.09684
2019-02-10 11:50:00+00:00,276.5847,0.0,12.97,47.84626,-54.09684
2019-02-10 12:00:00+00:00,279.1664,-0.1,12.97,47.84626,-54.09684
2019-02-10 12:10:00+00:00,279.748,-0.02,12.97,47.84626,-54.09684
2019-02-10 12:20:00+00:00,286.0147,0.02,13.68,47.84626,-54.09684
2019-02-10 12:30:00+00:00,290.7764,0.0,15.6,47.84626,-54.09684
2019-02-10 12:40:00+00:00,296.4514,0.0,17.18,47.84626,-54.09684
2019-02-10 12:50:00+00:00,301.3381,-0.06,16.87,47.84626,-54.09684
2019-02-10 13:00:00+00:00,309.9864,-0.09,17.18,47.84626,-54.09684
2019-02-10 13:10:00+00:00,319.1663,-0.1,14.8,47.84626,-54.09684
2019-02-10 13:20:00+00:00,320.9547,-0.1,16.95,47.84626,-54.09684
2019-02-10 13:30:00+00:00,324.1697,-0.05,16.95,47.84626,-54.09684
2019-02-10 13:40:00+00:00,337.6047,-0.0,16.87,47.84626,-54.09684
2019-02-10 13:50:00+00:00,345.9196,-0.0,17.11,47.84626,-54.09684
2019-02-10 14:00:00+00:00,343.9929,0.0,15.04,47.84626,-54.09684
2019-02-10 14:10:00+00:00,348.9329,0.0,14.72,47.84626,-54.09684
2019-02-10 14:20:00+00:00,356.0896,0.0,15.04,47.84626,-54.09684
2019-02-10 14:30:00+00:00,355.0696,0.0,15.83,47.84626,-54.09684
2019-02-10 14:40:00+00:00,352.8396,0.0,14.88,47.84626,-54.09684
2019-02-10 14:50:00+00:00,355.5846,0.0,14.8,47.84626,-54.09684
2019-02-10 15:00:00+00:00,356.3063,0.0,14.72,47.84626,-54.09684
2019-02-10 15:10:00+00:00,355.6563,0.0,14.72,47.84626,-54.09684
2019-02-10 15:20:00+00:00,352.8312,0.0,15.04,47.84626,-54.09684
2019-02-10 15:30:00+00:00,353.3214,0.0,15.11,47.84626,-54.09684
2019-02-10 15:40:00+00:00,356.4463,0.0,15.04,47.84626,-54.09684
2019-02-10 15:50:00+00:00,353.083,0.0,14.96,47.84626,-54.09684
2019-02-10 16:00:00+00:00,344.3779,0.0,14.88,47.84626,-54.09684
2019-02-10 16:10:00+00:00,341.1146,0.0,14.64,47.84626,-54.09684
2019-02-10 16:20:00+00:00,344.0963,0.0,14.72,47.84626,-54.09684
2019-02-10 16:30:00+00:00,338.4713,-0.0,14.72,47.84626,-54.09684
2019-02-10 16:40:00+00:00,328.5996,-0.03,14.72,47.84626,-54.09684
2019-02-10 16:50:00+00:00,328.2897,-0.05,14.64,47.84626,-54.09684
2019-02-10 17:00:00+00:00,329.2329,-0.05,14.48,47.84626,-54.09684
2019-02-10 17:10:00+00:00,321.0046,-0.1,14.4,47.84626,-54.09684
2019-02-10 17:20:00+00:00,313.833,-0.07,14.48,47.84626,-54.09684
2019-02-10 17:30:00+00:00,310.2263,-0.08,14.56,47.84626,-54.09684
2019-02-10 17:40:00+00:00,300.253,-0.1,14.64,47.84626,-54.09684
2019-02-10 17:50:00+00:00,288.7647,-0.1,14.64,47.84626,-54.09684
2019-02-10 18:00:00+00:00,283.7597,-0.1,14.64,47.84626,-54.09684
2019-02-10 18:10:00+00:00,280.1714,-0.1,14.64,47.84626,-54.09684
2019-02-10 18:20:00+00:00,269.3864,-0.1,14.64,47.84626,-54.09684
2019-02-10 18:30:00+00:00,262.4665,-0.1,14.64,47.84626,-54.09684
2019-02-10 18:40:00+00:00,258.083,-0.1,14.64,47.84626,-54.09684
2019-02-10 18:50:00+00:00,249.1581,-0.1,14.56,47.84626,-54.09684
2019-02-10 19:00:00+00:00,241.5965,-0.1,14.4,47.84626,-54.09684
2019-02-10 19:10:00+00:00,238.3464,-0.1,14.24,47.84626,-54.09684
2019-02-10 19:20:00+00:00,229.4464,-0.1,14.24,47.84626,-54.09684
2019-02-10 19:30:00+00:00,218.8131,-0.1,14.24,47.84626,-54.09684
2019-02-10 19:40:00+00:00,214.8115,-0.1,14.24,47.84626,-54.09684
2019-02-10 19:50:00+00:00,211.5031,-0.11,14.16,47.84626,-54.09684
2019-02-10 20:00:00+00:00,204.0531,-0.17,14.0,47.84626,-54.09684
2019-02-10 20:10:00+00:00,200.8248,-0.2,13.84,47.84626,-54.09684
2019-02-10 20:20:00+00:00,203.3031,-0.17,13.84,47.84626,-54.09684
2019-02-10 20:30:00+00:00,203.0198,-0.2,13.76,47.84626,-54.09684
2019-02-10 20:40:00+00:00,201.9198,-0.2,13.68,47.84626,-54.09684
2019-02-10 20:50:00+00:00,204.2631,-0.2,13.68,47.84626,-54.09684
2019-02-10 21:00:00+00:00,205.7264,-0.2,13.53,47.84626,-54.09684
2019-02-10 21:10:00+00:00,200.6981,-0.2,13.37,47.84626,-54.09684
2019-02-10 21:20:00+00:00,198.6131,-0.2,13.37,47.84626,-54.09684
2019-02-10 21:30:00+00:00,201.3481,-0.2,13.29,47.84626,-54.09684
2019-02-10 21:40:00+00:00,202.6365,-0.2,13.29,47.84626,-54.09684
2019-02-10 21:50:00+00:00,207.3665,-0.2,13.29,47.84626,-54.09684
2019-02-10 22:00:00+00:00,213.6231,-0.21,13.21,47.84626,-54.09684
2019-02-10 22:10:00+00:00,217.7414,-0.2,13.05,47.84626,-54.09684
2019-02-10 22:20:00+00:00,225.6397,-0.2,13.05,47.84626,-54.09684
2019-02-10 22:30:00+00:00,232.7414,-0.2,13.05,47.84626,-54.09684
2019-02-10 22:40:00+00:00,233.9147,-0.2,13.05,47.84626,-54.09684
2019-02-10 22:50:00+00:00,236.6664,-0.2,13.05,47.84626,-54.09684
2019-02-10 23:00:00+00:00,241.9514,-0.2,12.97,47.84626,-54.09684
2019-02-10 23:10:00+00:00,243.0298,-0.2,12.89,47.84626,-54.09684
2019-02-10 23:20:00+00:00,241.4414,-0.2,12.97,47.84626,-54.09684
2019-02-10 23:30:00+00:00,247.7714,-0.2,12.97,47.84626,-54.09684
2019-02-10 23:40:00+00:00,254.5264,-0.2,12.97,47.84626,-54.09684
2019-02-10 23:50:00+00:00,256.7164,-0.26,12.97,47.84626,-54.09684
